Year,Month,Day,Hour,Minute,Value (Times are PST for temperature in C)
2013,05,04,00,00,16.00
2013,05,04,00,01,15.90
2013,05,04,00,02,15.90
2013,05,04,00,03,15.90
2013,05,04,00,04,15.80
2013,05,04,00,05,15.80
2013,05,04,00,06,15.80
2013,05,04,00,07,15.80
2013,05,04,00,08,15.80
2013,05,04,00,09,15.70
2013,05,04,00,10,15.70
2013,05,04,00,11,15.70
2013,05,04,00,12,15.60
2013,05,04,00,13,15.60
2013,05,04,00,14,15.50
2013,05,04,00,15,15.50
2013,05,04,00,16,15.40
2013,05,04,00,17,15.40
2013,05,04,00,18,15.30
2013,05,04,00,19,15.30
2013,05,04,00,20,15.20
2013,05,04,00,21,15.20
2013,05,04,00,22,15.10
2013,05,04,00,23,15.00
2013,05,04,00,24,15.00
2013,05,04,00,25,15.00
2013,05,04,00,26,15.00
2013,05,04,00,27,15.00
2013,05,04,00,28,15.00
2013,05,04,00,29,15.00
2013,05,04,00,30,15.00
2013,05,04,00,31,15.00
2013,05,04,00,32,15.00
2013,05,04,00,33,15.00
2013,05,04,00,34,15.00
2013,05,04,00,35,15.00
2013,05,04,00,36,15.00
2013,05,04,00,37,15.00
2013,05,04,00,38,14.90
2013,05,04,00,39,14.90
2013,05,04,00,40,14.80
2013,05,04,00,41,14.80
2013,05,04,00,42,14.80
2013,05,04,00,43,14.70
2013,05,04,00,44,14.70
2013,05,04,00,45,14.70
2013,05,04,00,46,14.70
2013,05,04,00,47,14.70
2013,05,04,00,48,14.70
2013,05,04,00,49,14.70
2013,05,04,00,50,14.70
2013,05,04,00,51,14.60
2013,05,04,00,52,14.60
2013,05,04,00,53,14.60
2013,05,04,00,54,14.60
2013,05,04,00,55,14.50
2013,05,04,00,56,14.50
2013,05,04,00,57,14.50
2013,05,04,00,58,14.50
2013,05,04,00,59,14.50
2013,05,04,01,00,14.50
2013,05,04,01,01,14.40
2013,05,04,01,02,14.40
2013,05,04,01,03,14.40
2013,05,04,01,04,14.40
2013,05,04,01,05,14.40
2013,05,04,01,06,14.40
2013,05,04,01,07,14.40
2013,05,04,01,08,14.40
2013,05,04,01,09,14.40
2013,05,04,01,10,14.40
2013,05,04,01,11,14.40
2013,05,04,01,12,14.30
2013,05,04,01,13,14.30
2013,05,04,01,14,14.30
2013,05,04,01,15,14.30
2013,05,04,01,16,14.30
2013,05,04,01,17,14.30
2013,05,04,01,18,14.30
2013,05,04,01,19,14.30
2013,05,04,01,20,14.30
2013,05,04,01,21,14.30
2013,05,04,01,22,14.30
2013,05,04,01,23,14.30
2013,05,04,01,24,14.30
2013,05,04,01,25,14.30
2013,05,04,01,26,14.30
2013,05,04,01,27,14.30
2013,05,04,01,28,14.30
2013,05,04,01,29,14.30
2013,05,04,01,30,14.30
2013,05,04,01,31,14.30
2013,05,04,01,32,14.20
2013,05,04,01,33,14.20
2013,05,04,01,34,14.20
2013,05,04,01,35,14.20
2013,05,04,01,36,14.20
2013,05,04,01,37,14.20
2013,05,04,01,38,14.20
2013,05,04,01,39,14.20
2013,05,04,01,40,14.20
2013,05,04,01,41,14.20
2013,05,04,01,42,14.20
2013,05,04,01,43,14.20
2013,05,04,01,44,14.10
2013,05,04,01,45,14.10
2013,05,04,01,46,14.10
2013,05,04,01,47,14.10
2013,05,04,01,48,14.10
2013,05,04,01,49,14.10
2013,05,04,01,50,14.10
2013,05,04,01,51,14.10
2013,05,04,01,52,14.10
2013,05,04,01,53,14.10
2013,05,04,01,54,14.00
2013,05,04,01,55,14.00
2013,05,04,01,56,14.00
2013,05,04,01,57,13.90
2013,05,04,01,58,13.90
2013,05,04,01,59,13.90
2013,05,04,02,00,13.90
2013,05,04,02,01,13.90
2013,05,04,02,02,13.90
2013,05,04,02,03,13.90
2013,05,04,02,04,13.90
2013,05,04,02,05,13.80
2013,05,04,02,06,13.80
2013,05,04,02,07,13.80
2013,05,04,02,08,13.80
2013,05,04,02,09,13.80
2013,05,04,02,10,13.80
2013,05,04,02,11,13.80
2013,05,04,02,12,13.80
2013,05,04,02,13,13.80
2013,05,04,02,14,13.70
2013,05,04,02,15,13.70
2013,05,04,02,16,13.70
2013,05,04,02,17,13.70
2013,05,04,02,18,13.70
2013,05,04,02,19,13.70
2013,05,04,02,20,13.70
2013,05,04,02,21,13.70
2013,05,04,02,22,13.70
2013,05,04,02,23,13.70
2013,05,04,02,24,13.70
2013,05,04,02,25,13.70
2013,05,04,02,26,13.60
2013,05,04,02,27,13.60
2013,05,04,02,28,13.60
2013,05,04,02,29,13.60
2013,05,04,02,30,13.60
2013,05,04,02,31,13.50
2013,05,04,02,32,13.50
2013,05,04,02,33,13.50
2013,05,04,02,34,13.50
2013,05,04,02,35,13.50
2013,05,04,02,36,13.50
2013,05,04,02,37,13.40
2013,05,04,02,38,13.40
2013,05,04,02,39,13.40
2013,05,04,02,40,13.40
2013,05,04,02,41,13.50
2013,05,04,02,42,13.50
2013,05,04,02,43,13.50
2013,05,04,02,44,13.50
2013,05,04,02,45,13.60
2013,05,04,02,46,13.60
2013,05,04,02,47,13.60
2013,05,04,02,48,13.60
2013,05,04,02,49,13.60
2013,05,04,02,50,13.60
2013,05,04,02,51,13.60
2013,05,04,02,52,13.60
2013,05,04,02,53,13.60
2013,05,04,02,54,13.60
2013,05,04,02,55,13.60
2013,05,04,02,56,13.60
2013,05,04,02,57,13.60
2013,05,04,02,58,13.50
2013,05,04,02,59,13.50
2013,05,04,03,00,13.50
2013,05,04,03,01,13.40
2013,05,04,03,02,13.40
2013,05,04,03,03,13.40
2013,05,04,03,04,13.40
2013,05,04,03,05,13.40
2013,05,04,03,06,13.40
2013,05,04,03,07,13.40
2013,05,04,03,08,13.40
2013,05,04,03,09,13.40
2013,05,04,03,10,13.40
2013,05,04,03,11,13.40
2013,05,04,03,12,13.30
2013,05,04,03,13,13.30
2013,05,04,03,14,13.30
2013,05,04,03,15,13.30
2013,05,04,03,16,13.30
2013,05,04,03,17,13.30
2013,05,04,03,18,13.30
2013,05,04,03,19,13.30
2013,05,04,03,20,13.20
2013,05,04,03,21,13.20
2013,05,04,03,22,13.20
2013,05,04,03,23,13.20
2013,05,04,03,24,13.20
2013,05,04,03,25,13.20
2013,05,04,03,26,13.20
2013,05,04,03,27,13.20
2013,05,04,03,28,13.20
2013,05,04,03,29,13.20
2013,05,04,03,30,13.20
2013,05,04,03,31,13.20
2013,05,04,03,32,13.20
2013,05,04,03,33,13.20
2013,05,04,03,34,13.20
2013,05,04,03,35,13.20
2013,05,04,03,36,13.20
2013,05,04,03,37,13.20
2013,05,04,03,38,13.20
2013,05,04,03,39,13.20
2013,05,04,03,40,13.10
2013,05,04,03,41,13.10
2013,05,04,03,42,13.10
2013,05,04,03,43,13.10
2013,05,04,03,44,13.10
2013,05,04,03,45,13.10
2013,05,04,03,46,13.10
2013,05,04,03,47,13.10
2013,05,04,03,48,13.10
2013,05,04,03,49,13.10
2013,05,04,03,50,13.10
2013,05,04,03,51,13.10
2013,05,04,03,52,13.10
2013,05,04,03,53,13.10
2013,05,04,03,54,13.10
2013,05,04,03,55,13.10
2013,05,04,03,56,13.10
2013,05,04,03,57,13.10
2013,05,04,03,58,13.10
2013,05,04,03,59,13.10
2013,05,04,04,00,13.10
2013,05,04,04,01,13.10
2013,05,04,04,02,13.10
2013,05,04,04,03,13.10
2013,05,04,04,04,13.10
2013,05,04,04,05,13.10
2013,05,04,04,06,13.00
2013,05,04,04,07,13.00
2013,05,04,04,08,13.00
2013,05,04,04,09,13.00
2013,05,04,04,10,13.00
2013,05,04,04,11,13.00
2013,05,04,04,12,13.00
2013,05,04,04,13,13.10
2013,05,04,04,14,13.10
2013,05,04,04,15,13.10
2013,05,04,04,16,13.10
2013,05,04,04,17,13.20
2013,05,04,04,18,13.20
2013,05,04,04,19,13.20
2013,05,04,04,20,13.20
2013,05,04,04,21,13.20
2013,05,04,04,22,13.20
2013,05,04,04,23,13.20
2013,05,04,04,24,13.20
2013,05,04,04,25,13.10
2013,05,04,04,26,13.10
2013,05,04,04,27,13.10
2013,05,04,04,28,13.10
2013,05,04,04,29,13.10
2013,05,04,04,30,13.10
2013,05,04,04,31,13.10
2013,05,04,04,32,13.10
2013,05,04,04,33,13.10
2013,05,04,04,34,13.10
2013,05,04,04,35,13.10
2013,05,04,04,36,13.10
2013,05,04,04,37,13.10
2013,05,04,04,38,13.00
2013,05,04,04,39,13.00
2013,05,04,04,40,13.00
2013,05,04,04,41,13.00
2013,05,04,04,42,13.00
2013,05,04,04,43,13.00
2013,05,04,04,44,13.00
2013,05,04,04,45,13.00
2013,05,04,04,46,12.90
2013,05,04,04,47,12.90
2013,05,04,04,48,12.90
2013,05,04,04,49,12.90
2013,05,04,04,50,12.80
2013,05,04,04,51,12.80
2013,05,04,04,52,12.80
2013,05,04,04,53,12.70
2013,05,04,04,54,12.70
2013,05,04,04,55,12.70
2013,05,04,04,56,12.60
2013,05,04,04,57,12.60
2013,05,04,04,58,12.60
2013,05,04,04,59,12.60
2013,05,04,05,00,12.60
2013,05,04,05,01,12.60
2013,05,04,05,02,12.60
2013,05,04,05,03,12.60
2013,05,04,05,04,12.60
2013,05,04,05,05,12.70
2013,05,04,05,06,12.70
2013,05,04,05,07,12.60
2013,05,04,05,08,12.60
2013,05,04,05,09,12.70
2013,05,04,05,10,12.70
2013,05,04,05,11,12.70
2013,05,04,05,12,12.70
2013,05,04,05,13,12.60
2013,05,04,05,14,12.60
2013,05,04,05,15,12.60
2013,05,04,05,16,12.60
2013,05,04,05,17,12.60
2013,05,04,05,18,12.60
2013,05,04,05,19,12.60
2013,05,04,05,20,12.60
2013,05,04,05,21,12.60
2013,05,04,05,22,12.50
2013,05,04,05,23,12.60
2013,05,04,05,24,12.50
2013,05,04,05,25,12.50
2013,05,04,05,26,12.50
2013,05,04,05,27,12.60
2013,05,04,05,28,12.60
2013,05,04,05,29,12.60
2013,05,04,05,30,12.60
2013,05,04,05,31,12.60
2013,05,04,05,32,12.50
2013,05,04,05,33,12.50
2013,05,04,05,34,12.50
2013,05,04,05,35,12.60
2013,05,04,05,36,12.50
2013,05,04,05,37,12.60
2013,05,04,05,38,12.60
2013,05,04,05,39,12.50
2013,05,04,05,40,12.50
2013,05,04,05,41,12.50
2013,05,04,05,42,12.50
2013,05,04,05,43,12.50
2013,05,04,05,44,12.50
2013,05,04,05,45,12.40
2013,05,04,05,46,12.40
2013,05,04,05,47,12.40
2013,05,04,05,48,12.40
2013,05,04,05,49,12.40
2013,05,04,05,50,12.40
2013,05,04,05,51,12.40
2013,05,04,05,52,12.40
2013,05,04,05,53,12.40
2013,05,04,05,54,12.40
2013,05,04,05,55,12.40
2013,05,04,05,56,12.40
2013,05,04,05,57,12.30
2013,05,04,05,58,12.30
2013,05,04,05,59,12.30
2013,05,04,06,00,12.30
2013,05,04,06,01,12.30
2013,05,04,06,02,12.30
2013,05,04,06,03,12.20
2013,05,04,06,04,12.20
2013,05,04,06,05,12.20
2013,05,04,06,06,12.20
2013,05,04,06,07,12.20
2013,05,04,06,08,12.20
2013,05,04,06,09,12.20
2013,05,04,06,10,12.20
2013,05,04,06,11,12.20
2013,05,04,06,12,12.20
2013,05,04,06,13,12.20
2013,05,04,06,14,12.20
2013,05,04,06,15,12.20
2013,05,04,06,16,12.20
2013,05,04,06,17,12.20
2013,05,04,06,18,12.20
2013,05,04,06,19,12.20
2013,05,04,06,20,12.20
2013,05,04,06,21,12.20
2013,05,04,06,22,12.30
2013,05,04,06,23,12.30
2013,05,04,06,24,12.30
2013,05,04,06,25,12.30
2013,05,04,06,26,12.40
2013,05,04,06,27,12.40
2013,05,04,06,28,12.40
2013,05,04,06,29,12.50
2013,05,04,06,30,12.50
2013,05,04,06,31,12.50
2013,05,04,06,32,12.50
2013,05,04,06,33,12.60
2013,05,04,06,34,12.60
2013,05,04,06,35,12.60
2013,05,04,06,36,12.60
2013,05,04,06,37,12.60
2013,05,04,06,38,12.60
2013,05,04,06,39,12.70
2013,05,04,06,40,12.70
2013,05,04,06,41,12.70
2013,05,04,06,42,12.70
2013,05,04,06,43,12.70
2013,05,04,06,44,12.70
2013,05,04,06,45,12.70
2013,05,04,06,46,12.80
2013,05,04,06,47,12.80
2013,05,04,06,48,12.80
2013,05,04,06,49,12.80
2013,05,04,06,50,12.90
2013,05,04,06,51,12.90
2013,05,04,06,52,12.90
2013,05,04,06,53,12.90
2013,05,04,06,54,12.90
2013,05,04,06,55,13.00
2013,05,04,06,56,13.00
2013,05,04,06,57,13.10
2013,05,04,06,58,13.10
2013,05,04,06,59,13.10
2013,05,04,07,00,13.20
2013,05,04,07,01,13.20
2013,05,04,07,02,13.20
2013,05,04,07,03,13.30
2013,05,04,07,04,13.30
2013,05,04,07,05,13.30
2013,05,04,07,06,13.30
2013,05,04,07,07,13.30
2013,05,04,07,08,13.30
2013,05,04,07,09,13.40
2013,05,04,07,10,13.40
2013,05,04,07,11,13.40
2013,05,04,07,12,13.40
2013,05,04,07,13,13.40
2013,05,04,07,14,13.40
2013,05,04,07,15,13.40
2013,05,04,07,16,13.40
2013,05,04,07,17,13.40
2013,05,04,07,18,13.50
2013,05,04,07,19,13.50
2013,05,04,07,20,13.50
2013,05,04,07,21,13.50
2013,05,04,07,22,13.50
2013,05,04,07,23,13.50
2013,05,04,07,24,13.60
2013,05,04,07,25,13.60
2013,05,04,07,26,13.60
2013,05,04,07,27,13.60
2013,05,04,07,28,13.60
2013,05,04,07,29,13.60
2013,05,04,07,30,13.60
2013,05,04,07,31,13.60
2013,05,04,07,32,13.60
2013,05,04,07,33,13.60
2013,05,04,07,34,13.60
2013,05,04,07,35,13.70
2013,05,04,07,36,13.70
2013,05,04,07,37,13.70
2013,05,04,07,38,13.80
2013,05,04,07,39,13.80
2013,05,04,07,40,13.80
2013,05,04,07,41,13.80
2013,05,04,07,42,13.80
2013,05,04,07,43,13.80
2013,05,04,07,44,13.80
2013,05,04,07,45,13.80
2013,05,04,07,46,13.80
2013,05,04,07,47,13.90
2013,05,04,07,48,13.90
2013,05,04,07,49,13.90
2013,05,04,07,50,13.90
2013,05,04,07,51,13.90
2013,05,04,07,52,13.90
2013,05,04,07,53,13.90
2013,05,04,07,54,13.90
2013,05,04,07,55,13.80
2013,05,04,07,56,13.80
2013,05,04,07,57,13.80
2013,05,04,07,58,13.90
2013,05,04,07,59,13.90
2013,05,04,08,00,13.90
2013,05,04,08,01,14.00
2013,05,04,08,02,14.00
2013,05,04,08,03,14.10
2013,05,04,08,04,14.10
2013,05,04,08,05,14.10
2013,05,04,08,06,14.20
2013,05,04,08,07,14.20
2013,05,04,08,08,14.20
2013,05,04,08,09,14.30
2013,05,04,08,10,14.30
2013,05,04,08,11,14.30
2013,05,04,08,12,14.40
2013,05,04,08,13,14.40
2013,05,04,08,14,14.40
2013,05,04,08,15,14.40
2013,05,04,08,16,14.40
2013,05,04,08,17,14.40
2013,05,04,08,18,14.40
2013,05,04,08,19,14.40
2013,05,04,08,20,14.40
2013,05,04,08,21,14.50
2013,05,04,08,22,14.50
2013,05,04,08,23,14.50
2013,05,04,08,24,14.50
2013,05,04,08,25,14.60
2013,05,04,08,26,14.60
2013,05,04,08,27,14.70
2013,05,04,08,28,14.70
2013,05,04,08,29,14.80
2013,05,04,08,30,14.90
2013,05,04,08,31,14.90
2013,05,04,08,32,15.00
2013,05,04,08,33,15.00
2013,05,04,08,34,15.00
2013,05,04,08,35,15.00
2013,05,04,08,36,15.10
2013,05,04,08,37,15.20
2013,05,04,08,38,15.20
2013,05,04,08,39,15.30
2013,05,04,08,40,15.30
2013,05,04,08,41,15.30
2013,05,04,08,42,15.30
2013,05,04,08,43,15.30
2013,05,04,08,44,15.30
2013,05,04,08,45,15.40
2013,05,04,08,46,15.40
2013,05,04,08,47,15.40
2013,05,04,08,48,15.50
2013,05,04,08,49,15.60
2013,05,04,08,50,15.60
2013,05,04,08,51,15.60
2013,05,04,08,52,15.60
2013,05,04,08,53,15.60
2013,05,04,08,54,15.70
2013,05,04,08,55,15.60
2013,05,04,08,56,15.60
2013,05,04,08,57,15.60
2013,05,04,08,58,15.60
2013,05,04,08,59,15.60
2013,05,04,09,00,15.60
2013,05,04,09,01,15.60
2013,05,04,09,02,15.60
2013,05,04,09,03,15.60
2013,05,04,09,04,15.60
2013,05,04,09,05,15.60
2013,05,04,09,06,15.70
2013,05,04,09,07,15.70
2013,05,04,09,08,15.70
2013,05,04,09,09,15.70
2013,05,04,09,10,15.70
2013,05,04,09,11,15.70
2013,05,04,09,12,15.70
2013,05,04,09,13,15.70
2013,05,04,09,14,15.70
2013,05,04,09,15,15.80
2013,05,04,09,16,15.80
2013,05,04,09,17,15.80
2013,05,04,09,18,15.90
2013,05,04,09,19,15.90
2013,05,04,09,20,15.90
2013,05,04,09,21,15.90
2013,05,04,09,22,15.90
2013,05,04,09,23,16.00
2013,05,04,09,24,16.00
2013,05,04,09,25,16.10
2013,05,04,09,26,16.20
2013,05,04,09,27,16.20
2013,05,04,09,28,16.30
2013,05,04,09,29,16.20
2013,05,04,09,30,16.20
2013,05,04,09,31,16.20
2013,05,04,09,32,16.30
2013,05,04,09,33,16.30
2013,05,04,09,34,16.30
2013,05,04,09,35,16.40
2013,05,04,09,36,16.40
2013,05,04,09,37,16.50
2013,05,04,09,38,16.50
2013,05,04,09,39,16.60
2013,05,04,09,40,16.60
2013,05,04,09,41,16.60
2013,05,04,09,42,16.60
2013,05,04,09,43,16.60
2013,05,04,09,44,16.70
2013,05,04,09,45,16.80
2013,05,04,09,46,16.80
2013,05,04,09,47,16.80
2013,05,04,09,48,16.80
2013,05,04,09,49,16.80
2013,05,04,09,50,16.80
2013,05,04,09,51,16.70
2013,05,04,09,52,16.70
2013,05,04,09,53,16.70
2013,05,04,09,54,16.70
2013,05,04,09,55,16.70
2013,05,04,09,56,16.70
2013,05,04,09,57,16.70
2013,05,04,09,58,16.70
2013,05,04,09,59,16.60
2013,05,04,10,00,16.60
2013,05,04,10,01,16.60
2013,05,04,10,02,16.60
2013,05,04,10,03,16.60
2013,05,04,10,04,16.60
2013,05,04,10,05,16.60
2013,05,04,10,06,16.70
2013,05,04,10,07,16.80
2013,05,04,10,08,16.90
2013,05,04,10,09,17.00
2013,05,04,10,10,17.10
2013,05,04,10,11,17.20
2013,05,04,10,12,17.20
2013,05,04,10,13,17.30
2013,05,04,10,14,17.40
2013,05,04,10,15,17.40
2013,05,04,10,16,17.40
2013,05,04,10,17,17.40
2013,05,04,10,18,17.40
2013,05,04,10,19,17.50
2013,05,04,10,20,17.60
2013,05,04,10,21,17.60
2013,05,04,10,22,17.70
2013,05,04,10,23,17.70
2013,05,04,10,24,17.70
2013,05,04,10,25,17.70
2013,05,04,10,26,17.70
2013,05,04,10,27,17.80
2013,05,04,10,28,17.80
2013,05,04,10,29,17.70
2013,05,04,10,30,17.70
2013,05,04,10,31,17.60
2013,05,04,10,32,17.60
2013,05,04,10,33,17.60
2013,05,04,10,34,17.60
2013,05,04,10,35,17.60
2013,05,04,10,36,17.60
2013,05,04,10,37,17.60
2013,05,04,10,38,17.70
2013,05,04,10,39,17.70
2013,05,04,10,40,17.80
2013,05,04,10,41,17.90
2013,05,04,10,42,17.90
2013,05,04,10,43,18.00
2013,05,04,10,44,17.90
2013,05,04,10,45,17.90
2013,05,04,10,46,17.80
2013,05,04,10,47,17.70
2013,05,04,10,48,17.60
2013,05,04,10,49,17.60
2013,05,04,10,50,17.50
2013,05,04,10,51,17.50
2013,05,04,10,52,17.40
2013,05,04,10,53,17.30
2013,05,04,10,54,17.20
2013,05,04,10,55,17.20
2013,05,04,10,56,17.20
2013,05,04,10,57,17.30
2013,05,04,10,58,17.30
2013,05,04,10,59,17.40
2013,05,04,11,00,17.50
2013,05,04,11,01,17.50
2013,05,04,11,02,17.60
2013,05,04,11,03,17.70
2013,05,04,11,04,17.70
2013,05,04,11,05,17.70
2013,05,04,11,06,17.70
2013,05,04,11,07,17.60
2013,05,04,11,08,17.50
2013,05,04,11,09,17.40
2013,05,04,11,10,17.40
2013,05,04,11,11,17.40
2013,05,04,11,12,17.40
2013,05,04,11,13,17.40
2013,05,04,11,14,17.50
2013,05,04,11,15,17.40
2013,05,04,11,16,17.50
2013,05,04,11,17,17.50
2013,05,04,11,18,17.60
2013,05,04,11,19,17.70
2013,05,04,11,20,17.70
2013,05,04,11,21,17.80
2013,05,04,11,22,17.90
2013,05,04,11,23,17.90
2013,05,04,11,24,17.90
2013,05,04,11,25,17.90
2013,05,04,11,26,17.90
2013,05,04,11,27,18.00
2013,05,04,11,28,18.00
2013,05,04,11,29,18.10
2013,05,04,11,30,18.20
2013,05,04,11,31,18.30
2013,05,04,11,32,18.40
2013,05,04,11,33,18.50
2013,05,04,11,34,18.50
2013,05,04,11,35,18.40
2013,05,04,11,36,18.30
2013,05,04,11,37,18.30
2013,05,04,11,38,18.20
2013,05,04,11,39,18.20
2013,05,04,11,40,18.10
2013,05,04,11,41,18.00
2013,05,04,11,42,18.00
2013,05,04,11,43,18.10
2013,05,04,11,44,18.10
2013,05,04,11,45,18.20
2013,05,04,11,46,18.10
2013,05,04,11,47,18.10
2013,05,04,11,48,18.00
2013,05,04,11,49,18.00
2013,05,04,11,50,18.10
2013,05,04,11,51,18.10
2013,05,04,11,52,18.20
2013,05,04,11,53,18.20
2013,05,04,11,54,18.20
2013,05,04,11,55,18.20
2013,05,04,11,56,18.20
2013,05,04,11,57,18.20
2013,05,04,11,58,18.30
2013,05,04,11,59,18.40
2013,05,04,12,00,18.60
2013,05,04,12,01,18.70
2013,05,04,12,02,18.80
2013,05,04,12,03,18.90
2013,05,04,12,04,18.90
2013,05,04,12,05,19.00
2013,05,04,12,06,19.10
2013,05,04,12,07,19.20
2013,05,04,12,08,19.30
2013,05,04,12,09,19.20
2013,05,04,12,10,19.20
2013,05,04,12,11,19.10
2013,05,04,12,12,19.10
2013,05,04,12,13,19.10
2013,05,04,12,14,19.10
2013,05,04,12,15,19.20
2013,05,04,12,16,19.20
2013,05,04,12,17,19.10
2013,05,04,12,18,19.10
2013,05,04,12,19,19.00
2013,05,04,12,20,19.00
2013,05,04,12,21,18.90
2013,05,04,12,22,18.80
2013,05,04,12,23,18.70
2013,05,04,12,24,18.70
2013,05,04,12,25,18.50
2013,05,04,12,26,18.40
2013,05,04,12,27,18.30
2013,05,04,12,28,18.20
2013,05,04,12,29,18.20
2013,05,04,12,30,18.20
2013,05,04,12,31,18.20
2013,05,04,12,32,18.20
2013,05,04,12,33,18.20
2013,05,04,12,34,18.20
2013,05,04,12,35,18.20
2013,05,04,12,36,18.20
2013,05,04,12,37,18.30
2013,05,04,12,38,18.30
2013,05,04,12,39,18.40
2013,05,04,12,40,18.60
2013,05,04,12,41,18.60
2013,05,04,12,42,18.60
2013,05,04,12,43,18.60
2013,05,04,12,44,18.50
2013,05,04,12,45,18.60
2013,05,04,12,46,18.60
2013,05,04,12,47,18.70
2013,05,04,12,48,18.70
2013,05,04,12,49,18.70
2013,05,04,12,50,18.80
2013,05,04,12,51,18.70
2013,05,04,12,52,18.70
2013,05,04,12,53,18.70
2013,05,04,12,54,18.70
2013,05,04,12,55,18.70
2013,05,04,12,56,18.70
2013,05,04,12,57,18.70
2013,05,04,12,58,18.70
2013,05,04,12,59,18.70
2013,05,04,13,00,18.80
2013,05,04,13,01,18.80
2013,05,04,13,02,18.80
2013,05,04,13,03,18.80
2013,05,04,13,04,18.80
2013,05,04,13,05,18.80
2013,05,04,13,06,18.90
2013,05,04,13,07,18.90
2013,05,04,13,08,19.00
2013,05,04,13,09,19.10
2013,05,04,13,10,19.10
2013,05,04,13,11,19.20
2013,05,04,13,12,19.20
2013,05,04,13,13,19.20
2013,05,04,13,14,19.20
2013,05,04,13,15,19.30
2013,05,04,13,16,19.30
2013,05,04,13,17,19.30
2013,05,04,13,18,19.40
2013,05,04,13,19,19.40
2013,05,04,13,20,19.40
2013,05,04,13,21,19.50
2013,05,04,13,22,19.50
2013,05,04,13,23,19.60
2013,05,04,13,24,19.60
2013,05,04,13,25,19.60
2013,05,04,13,26,19.60
2013,05,04,13,27,19.60
2013,05,04,13,28,19.50
2013,05,04,13,29,19.50
2013,05,04,13,30,19.60
2013,05,04,13,31,19.60
2013,05,04,13,32,19.60
2013,05,04,13,33,19.50
2013,05,04,13,34,19.50
2013,05,04,13,35,19.50
2013,05,04,13,36,19.40
2013,05,04,13,37,19.40
2013,05,04,13,38,19.40
2013,05,04,13,39,19.40
2013,05,04,13,40,19.50
2013,05,04,13,41,19.60
2013,05,04,13,42,19.60
2013,05,04,13,43,19.70
2013,05,04,13,44,19.80
2013,05,04,13,45,19.80
2013,05,04,13,46,19.80
2013,05,04,13,47,19.80
2013,05,04,13,48,19.80
2013,05,04,13,49,19.80
2013,05,04,13,50,19.90
2013,05,04,13,51,19.90
2013,05,04,13,52,19.90
2013,05,04,13,53,20.00
2013,05,04,13,54,20.00
2013,05,04,13,55,20.00
2013,05,04,13,56,20.10
2013,05,04,13,57,20.10
2013,05,04,13,58,20.20
2013,05,04,13,59,20.30
2013,05,04,14,00,20.30
2013,05,04,14,01,20.40
2013,05,04,14,02,20.40
2013,05,04,14,03,20.50
2013,05,04,14,04,20.50
2013,05,04,14,05,20.50
2013,05,04,14,06,20.50
2013,05,04,14,07,20.50
2013,05,04,14,08,20.60
2013,05,04,14,09,20.60
2013,05,04,14,10,20.60
2013,05,04,14,11,20.50
2013,05,04,14,12,20.40
2013,05,04,14,13,20.30
2013,05,04,14,14,20.30
2013,05,04,14,15,20.30
2013,05,04,14,16,20.30
2013,05,04,14,17,20.30
2013,05,04,14,18,20.30
2013,05,04,14,19,20.40
2013,05,04,14,20,20.40
2013,05,04,14,21,20.50
2013,05,04,14,22,20.60
2013,05,04,14,23,20.70
2013,05,04,14,24,20.70
2013,05,04,14,25,20.80
2013,05,04,14,26,20.80
2013,05,04,14,27,20.90
2013,05,04,14,28,20.90
2013,05,04,14,29,20.90
2013,05,04,14,30,20.90
2013,05,04,14,31,20.90
2013,05,04,14,32,20.90
2013,05,04,14,33,20.90
2013,05,04,14,34,20.80
2013,05,04,14,35,20.80
2013,05,04,14,36,20.80
2013,05,04,14,37,20.80
2013,05,04,14,38,20.80
2013,05,04,14,39,20.90
2013,05,04,14,40,20.90
2013,05,04,14,41,20.90
2013,05,04,14,42,20.90
2013,05,04,14,43,20.90
2013,05,04,14,44,21.00
2013,05,04,14,45,21.10
2013,05,04,14,46,21.10
2013,05,04,14,47,21.20
2013,05,04,14,48,21.10
2013,05,04,14,49,21.10
2013,05,04,14,50,21.00
2013,05,04,14,51,20.90
2013,05,04,14,52,20.90
2013,05,04,14,53,20.90
2013,05,04,14,54,20.90
2013,05,04,14,55,20.90
2013,05,04,14,56,20.90
2013,05,04,14,57,20.90
2013,05,04,14,58,20.90
2013,05,04,14,59,20.90
2013,05,04,15,00,20.90
2013,05,04,15,01,20.90
2013,05,04,15,02,21.00
2013,05,04,15,03,21.00
2013,05,04,15,04,21.00
2013,05,04,15,05,21.10
2013,05,04,15,06,21.10
2013,05,04,15,07,21.20
2013,05,04,15,08,21.20
2013,05,04,15,09,21.20
2013,05,04,15,10,21.20
2013,05,04,15,11,21.20
2013,05,04,15,12,21.20
2013,05,04,15,13,21.30
2013,05,04,15,14,21.40
2013,05,04,15,15,21.40
2013,05,04,15,16,21.50
2013,05,04,15,17,21.60
2013,05,04,15,18,21.70
2013,05,04,15,19,21.70
2013,05,04,15,20,21.80
2013,05,04,15,21,21.80
2013,05,04,15,22,21.80
2013,05,04,15,23,21.70
2013,05,04,15,24,21.70
2013,05,04,15,25,21.70
2013,05,04,15,26,21.70
2013,05,04,15,27,21.70
2013,05,04,15,28,21.80
2013,05,04,15,29,21.80
2013,05,04,15,30,21.80
2013,05,04,15,31,21.90
2013,05,04,15,32,21.90
2013,05,04,15,33,22.00
2013,05,04,15,34,22.00
2013,05,04,15,35,22.00
2013,05,04,15,36,22.00
2013,05,04,15,37,22.10
2013,05,04,15,38,22.10
2013,05,04,15,39,22.10
2013,05,04,15,40,22.10
2013,05,04,15,41,22.10
2013,05,04,15,42,22.20
2013,05,04,15,43,22.20
2013,05,04,15,44,22.20
2013,05,04,15,45,22.20
2013,05,04,15,46,22.30
2013,05,04,15,47,22.30
2013,05,04,15,48,22.30
2013,05,04,15,49,22.40
2013,05,04,15,50,22.40
2013,05,04,15,51,22.40
2013,05,04,15,52,22.40
2013,05,04,15,53,22.50
2013,05,04,15,54,22.50
2013,05,04,15,55,22.60
2013,05,04,15,56,22.60
2013,05,04,15,57,22.60
2013,05,04,15,58,22.60
2013,05,04,15,59,22.70
2013,05,04,16,00,22.70
2013,05,04,16,01,22.70
2013,05,04,16,02,22.70
2013,05,04,16,03,22.70
2013,05,04,16,04,22.80
2013,05,04,16,05,22.70
2013,05,04,16,06,22.70
2013,05,04,16,07,22.70
2013,05,04,16,08,22.70
2013,05,04,16,09,22.70
2013,05,04,16,10,22.70
2013,05,04,16,11,22.80
2013,05,04,16,12,22.80
2013,05,04,16,13,22.90
2013,05,04,16,14,22.90
2013,05,04,16,15,22.90
2013,05,04,16,16,23.00
2013,05,04,16,17,23.00
2013,05,04,16,18,23.10
2013,05,04,16,19,23.10
2013,05,04,16,20,23.10
2013,05,04,16,21,23.10
2013,05,04,16,22,23.10
2013,05,04,16,23,23.20
2013,05,04,16,24,23.20
2013,05,04,16,25,23.20
2013,05,04,16,26,23.30
2013,05,04,16,27,23.30
2013,05,04,16,28,23.30
2013,05,04,16,29,23.30
2013,05,04,16,30,23.30
2013,05,04,16,31,23.30
2013,05,04,16,32,23.30
2013,05,04,16,33,23.30
2013,05,04,16,34,23.30
2013,05,04,16,35,23.20
2013,05,04,16,36,23.20
2013,05,04,16,37,23.10
2013,05,04,16,38,23.10
2013,05,04,16,39,23.10
2013,05,04,16,40,23.00
2013,05,04,16,41,23.00
2013,05,04,16,42,22.90
2013,05,04,16,43,22.80
2013,05,04,16,44,22.70
2013,05,04,16,45,22.60
2013,05,04,16,46,22.50
2013,05,04,16,47,22.40
2013,05,04,16,48,22.30
2013,05,04,16,49,22.30
2013,05,04,16,50,22.30
2013,05,04,16,51,22.30
2013,05,04,16,52,22.40
2013,05,04,16,53,22.40
2013,05,04,16,54,22.50
2013,05,04,16,55,22.50
2013,05,04,16,56,22.60
2013,05,04,16,57,22.60
2013,05,04,16,58,22.60
2013,05,04,16,59,22.60
2013,05,04,17,00,22.60
2013,05,04,17,01,22.60
2013,05,04,17,02,22.60
2013,05,04,17,03,22.60
2013,05,04,17,04,22.60
2013,05,04,17,05,22.60
2013,05,04,17,06,22.60
2013,05,04,17,07,22.70
2013,05,04,17,08,22.60
2013,05,04,17,09,22.60
2013,05,04,17,10,22.60
2013,05,04,17,11,22.60
2013,05,04,17,12,22.50
2013,05,04,17,13,22.40
2013,05,04,17,14,22.40
2013,05,04,17,15,22.30
2013,05,04,17,16,22.30
2013,05,04,17,17,22.30
2013,05,04,17,18,22.30
2013,05,04,17,19,22.30